Time,TemperatureF,DewpointF,PressureIn,WindDirection,WindDirectionDegrees,WindSpeedMPH,WindSpeedGustMPH,Humidity,HourlyPrecipIn,Conditions,Clouds,dailyrainin,SoftwareType,DateUTC
2013-09-11 00:03:00,79.4,63.8,29.94,North,5,0.0,0.0,59,0.00,OVC,OVC,0.00,WeatherDisplay:10.37,2013-09-11 05:03:00,
2013-09-11 00:08:00,79.3,63.7,29.94,North,5,0.0,0.0,59,0.00,OVC,OVC,0.00,WeatherDisplay:10.37,2013-09-11 05:08:00,
2013-09-11 00:13:00,79.2,63.6,29.94,North,5,0.0,0.0,59,0.00,OVC,OVC,0.00,WeatherDisplay:10.37,2013-09-11 05:13:00,
2013-09-11 00:18:00,79.1,63.5,29.94,North,5,0.0,0.0,59,0.00,OVC,OVC,0.00,WeatherDisplay:10.37,2013-09-11 05:18:00,
2013-09-11 00:23:00,79.0,63.4,29.94,North,5,0.0,0.0,59,0.00,OVC,OVC,0.00,WeatherDisplay:10.37,2013-09-11 05:23:00,
2013-09-11 00:28:00,78.9,63.4,29.94,North,5,0.0,0.0,59,0.00,OVC,OVC,0.00,WeatherDisplay:10.37,2013-09-11 05:28:00,
2013-09-11 00:33:00,78.9,63.4,29.94,North,5,0.0,0.0,59,0.00,OVC,OVC,0.00,WeatherDisplay:10.37,2013-09-11 05:33:00,
2013-09-11 00:38:00,79.0,63.4,29.94,North,5,0.0,0.0,59,0.00,OVC,OVC,0.00,WeatherDisplay:10.37,2013-09-11 05:38:00,
2013-09-11 00:43:00,79.1,63.5,29.95,North,5,0.0,0.0,59,0.00,OVC,OVC,0.00,WeatherDisplay:10.37,2013-09-11 05:43:00,
2013-09-11 00:48:00,79.4,63.8,29.95,North,5,3.5,3.5,59,0.00,OVC,OVC,0.00,WeatherDisplay:10.37,2013-09-11 05:48:00,
2013-09-11 00:53:00,79.6,64.0,29.95,NW,307,3.5,3.5,59,0.00,OVC,OVC,0.00,WeatherDisplay:10.37,2013-09-11 05:53:00,
2013-09-11 00:58:00,79.7,64.1,29.95,NNW,332,3.5,3.5,59,0.00,OVC,OVC,0.00,WeatherDisplay:10.37,2013-09-11 05:58:00,
2013-09-11 01:03:00,79.7,64.1,29.95,North,360,3.5,3.5,59,0.00,OVC,OVC,0.00,WeatherDisplay:10.37,2013-09-11 06:03:00,
2013-09-11 01:08:00,79.6,64.0,29.95,North,360,0.0,0.0,59,0.00,OVC,OVC,0.00,WeatherDisplay:10.37,2013-09-11 06:08:00,
2013-09-11 01:14:00,79.5,63.9,29.95,North,360,0.0,0.0,59,0.00,OVC,OVC,0.00,WeatherDisplay:10.37,2013-09-11 06:14:00,
2013-09-11 01:19:00,79.4,63.8,29.95,North,360,0.0,0.0,59,0.00,OVC,OVC,0.00,WeatherDisplay:10.37,2013-09-11 06:19:00,
2013-09-11 01:24:00,79.4,63.8,29.96,North,360,3.0,3.0,59,0.00,OVC,OVC,0.00,WeatherDisplay:10.37,2013-09-11 06:24:00,
2013-09-11 01:29:00,79.4,63.8,29.96,North,360,0.0,0.0,59,0.00,OVC,OVC,0.00,WeatherDisplay:10.37,2013-09-11 06:29:00,
2013-09-11 01:34:00,79.4,63.8,29.97,North,360,0.0,0.0,59,0.00,OVC,OVC,0.00,WeatherDisplay:10.37,2013-09-11 06:34:00,
2013-09-11 01:39:00,79.5,64.4,29.97,North,360,2.3,2.3,60,0.00,OVC,OVC,0.00,WeatherDisplay:10.37,2013-09-11 06:39:00,
2013-09-11 01:44:00,79.5,64.4,29.97,North,360,0.0,0.0,60,0.00,OVC,OVC,0.00,WeatherDisplay:10.37,2013-09-11 06:44:00,
2013-09-11 01:49:00,79.4,63.8,29.97,North,360,0.0,0.0,59,0.00,OVC,OVC,0.00,WeatherDisplay:10.37,2013-09-11 06:49:00,
2013-09-11 01:54:00,79.3,64.2,29.96,North,360,0.0,0.0,60,0.00,OVC,OVC,0.00,WeatherDisplay:10.37,2013-09-11 06:54:00,
2013-09-11 01:59:00,79.3,63.7,29.96,North,360,1.2,0.0,59,0.00,OVC,OVC,0.00,WeatherDisplay:10.37,2013-09-11 06:59:00,
2013-09-11 02:04:00,79.2,64.1,29.96,North,360,2.3,0.0,60,0.00,OVC,OVC,0.00,WeatherDisplay:10.37,2013-09-11 07:04:00,
2013-09-11 02:09:00,79.3,64.2,29.97,North,360,0.0,0.0,60,0.00,OVC,OVC,0.00,WeatherDisplay:10.37,2013-09-11 07:09:00,
2013-09-11 02:14:00,79.2,64.1,29.97,North,360,2.3,2.3,60,0.00,OVC,OVC,0.00,WeatherDisplay:10.37,2013-09-11 07:14:00,
2013-09-11 02:19:00,79.3,64.2,29.97,North,360,0.0,0.0,60,0.00,OVC,OVC,0.00,WeatherDisplay:10.37,2013-09-11 07:19:00,
2013-09-11 02:24:00,79.5,64.4,29.97,North,360,2.3,2.3,60,0.00,OVC,OVC,0.00,WeatherDisplay:10.37,2013-09-11 07:24:00,
2013-09-11 02:29:00,79.7,64.6,29.97,North,360,0.0,0.0,60,0.00,OVC,OVC,0.00,WeatherDisplay:10.37,2013-09-11 07:29:00,
2013-09-11 02:34:00,79.9,64.8,29.97,North,360,0.0,0.0,60,0.00,OVC,OVC,0.00,WeatherDisplay:10.37,2013-09-11 07:34:00,
2013-09-11 02:39:00,80.1,64.5,29.97,WNW,303,3.5,3.5,59,0.00,OVC,OVC,0.00,WeatherDisplay:10.37,2013-09-11 07:39:00,
2013-09-11 02:44:00,80.1,64.5,29.97,WNW,303,2.3,2.3,59,0.00,OVC,OVC,0.00,WeatherDisplay:10.37,2013-09-11 07:44:00,
2013-09-11 02:49:00,80.1,64.5,29.98,WNW,303,2.3,2.3,59,0.00,OVC,OVC,0.00,WeatherDisplay:10.37,2013-09-11 07:49:00,
2013-09-11 02:54:00,80.1,64.5,29.98,WNW,302,0.0,0.0,59,0.00,OVC,OVC,0.00,WeatherDisplay:10.37,2013-09-11 07:54:00,
2013-09-11 02:59:00,80.1,64.5,29.98,WNW,302,3.5,3.5,59,0.00,OVC,OVC,0.00,WeatherDisplay:10.37,2013-09-11 07:59:00,
2013-09-11 03:04:00,79.8,64.7,29.98,West,273,3.5,3.5,60,0.00,OVC,OVC,0.00,WeatherDisplay:10.37,2013-09-11 08:04:00,
2013-09-11 03:09:00,79.4,63.8,29.98,NW,315,0.0,0.0,59,0.00,OVC,OVC,0.00,WeatherDisplay:10.37,2013-09-11 08:09:00,
2013-09-11 03:14:00,79.0,63.9,29.98,SW,223,0.0,0.0,60,0.00,OVC,OVC,0.00,WeatherDisplay:10.37,2013-09-11 08:14:00,
2013-09-11 03:19:00,78.7,63.2,29.98,SW,219,2.3,2.3,59,0.00,OVC,OVC,0.00,WeatherDisplay:10.37,2013-09-11 08:19:00,
2013-09-11 03:24:00,78.4,62.9,29.98,West,271,5.0,5.0,59,0.00,OVC,OVC,0.00,WeatherDisplay:10.37,2013-09-11 08:24:00,
2013-09-11 03:29:00,78.1,62.6,29.98,West,263,1.2,1.2,59,0.00,OVC,OVC,0.00,WeatherDisplay:10.37,2013-09-11 08:29:00,
2013-09-11 03:34:00,77.8,62.3,29.98,West,265,3.5,3.5,59,0.00,OVC,OVC,0.00,WeatherDisplay:10.37,2013-09-11 08:34:00,
2013-09-11 03:39:00,77.7,62.2,29.98,West,265,6.9,6.9,59,0.00,OVC,OVC,0.00,WeatherDisplay:10.37,2013-09-11 08:39:00,
2013-09-11 03:44:00,77.5,62.0,29.98,WSW,244,3.5,3.5,59,0.00,OVC,OVC,0.00,WeatherDisplay:10.37,2013-09-11 08:44:00,
2013-09-11 03:49:00,77.5,62.0,29.99,WSW,248,3.5,3.5,59,0.00,OVC,OVC,0.00,WeatherDisplay:10.37,2013-09-11 08:49:00,
2013-09-11 03:54:00,77.4,62.4,29.99,SW,223,5.8,5.8,60,0.00,OVC,OVC,0.00,WeatherDisplay:10.37,2013-09-11 08:54:00,
2013-09-11 03:59:00,77.4,62.4,29.99,West,266,4.0,4.0,60,0.00,OVC,OVC,0.00,WeatherDisplay:10.37,2013-09-11 08:59:00,
2013-09-11 04:04:00,77.2,62.2,29.99,WSW,252,2.3,2.3,60,0.00,OVC,OVC,0.00,WeatherDisplay:10.37,2013-09-11 09:04:00,
2013-09-11 04:09:00,77.0,61.6,29.99,West,259,5.0,0.0,59,0.00,OVC,OVC,0.00,WeatherDisplay:10.37,2013-09-11 09:09:00,
2013-09-11 04:14:00,76.7,61.3,30.00,WSW,238,3.5,3.5,59,0.00,OVC,OVC,0.00,WeatherDisplay:10.37,2013-09-11 09:14:00,
2013-09-11 04:19:00,76.4,61.0,30.00,West,279,5.8,5.8,59,0.00,OVC,OVC,0.00,WeatherDisplay:10.37,2013-09-11 09:19:00,
2013-09-11 04:24:00,76.1,60.7,30.00,West,269,3.5,3.5,59,0.00,OVC,OVC,0.00,WeatherDisplay:10.37,2013-09-11 09:24:00,
2013-09-11 04:29:00,76.0,60.2,30.00,West,275,4.6,4.6,58,0.00,OVC,OVC,0.00,WeatherDisplay:10.37,2013-09-11 09:29:00,
2013-09-11 04:34:00,75.8,60.0,30.01,West,273,0.0,0.0,58,0.00,OVC,OVC,0.00,WeatherDisplay:10.37,2013-09-11 09:34:00,
2013-09-11 04:39:00,75.6,59.8,30.01,WSW,254,3.5,3.5,58,0.00,OVC,OVC,0.00,WeatherDisplay:10.37,2013-09-11 09:39:00,
2013-09-11 04:45:00,75.5,59.7,30.01,West,273,3.5,3.5,58,0.00,OVC,OVC,0.00,WeatherDisplay:10.37,2013-09-11 09:45:00,
2013-09-11 04:50:00,75.4,59.6,30.01,West,263,5.8,5.8,58,0.00,CLR,CLR,0.00,WeatherDisplay:10.37,2013-09-11 09:50:00,
2013-09-11 04:55:00,75.3,59.5,30.01,West,273,3.0,3.0,58,0.00,CLR,CLR,0.00,WeatherDisplay:10.37,2013-09-11 09:55:00,
2013-09-11 05:00:00,75.3,60.0,30.01,West,268,3.5,3.5,59,0.00,CLR,CLR,0.00,WeatherDisplay:10.37,2013-09-11 10:00:00,
2013-09-11 05:05:00,75.4,60.1,30.01,West,273,0.0,0.0,59,0.00,CLR,CLR,0.00,WeatherDisplay:10.37,2013-09-11 10:05:00,
2013-09-11 05:10:00,75.4,60.1,30.01,West,273,2.3,2.3,59,0.00,CLR,CLR,0.00,WeatherDisplay:10.37,2013-09-11 10:10:00,
2013-09-11 05:15:00,75.4,60.1,30.02,NW,304,5.8,5.8,59,0.00,CLR,CLR,0.00,WeatherDisplay:10.37,2013-09-11 10:15:00,
2013-09-11 05:20:00,75.4,60.1,30.02,NW,308,3.5,3.5,59,0.00,CLR,CLR,0.00,WeatherDisplay:10.37,2013-09-11 10:20:00,
2013-09-11 05:25:00,75.4,60.1,30.01,WNW,288,3.5,3.5,59,0.00,CLR,CLR,0.00,WeatherDisplay:10.37,2013-09-11 10:25:00,
2013-09-11 05:30:00,75.4,60.1,30.01,WNW,288,0.0,0.0,59,0.00,CLR,CLR,0.00,WeatherDisplay:10.37,2013-09-11 10:30:00,
2013-09-11 05:35:00,75.3,60.0,30.01,WNW,288,2.3,2.3,59,0.00,CLR,CLR,0.00,WeatherDisplay:10.37,2013-09-11 10:35:00,
2013-09-11 05:40:00,75.1,59.3,30.01,West,270,0.0,0.0,58,0.00,CLR,CLR,0.00,WeatherDisplay:10.37,2013-09-11 10:40:00,
2013-09-11 05:45:00,74.9,59.1,30.02,West,271,2.3,2.3,58,0.00,CLR,CLR,0.00,WeatherDisplay:10.37,2013-09-11 10:45:00,
2013-09-11 05:50:00,74.5,58.3,30.02,West,269,0.0,0.0,57,0.00,CLR,CLR,0.00,WeatherDisplay:10.37,2013-09-11 10:50:00,
2013-09-11 05:55:00,74.1,57.9,30.03,West,269,1.2,0.0,57,0.00,CLR,CLR,0.00,WeatherDisplay:10.37,2013-09-11 10:55:00,
2013-09-11 06:00:00,73.7,57.0,30.03,NE,49,0.0,0.0,56,0.00,CLR,CLR,0.00,WeatherDisplay:10.37,2013-09-11 11:00:00,
2013-09-11 06:05:00,73.3,56.7,30.03,NE,45,0.0,0.0,56,0.00,CLR,CLR,0.00,WeatherDisplay:10.37,2013-09-11 11:05:00,
2013-09-11 06:10:00,73.0,56.4,30.03,NE,45,0.0,0.0,56,0.00,CLR,CLR,0.00,WeatherDisplay:10.37,2013-09-11 11:10:00,
2013-09-11 06:15:00,72.8,56.2,30.03,NE,45,0.0,0.0,56,0.00,CLR,CLR,0.00,WeatherDisplay:10.37,2013-09-11 11:15:00,
2013-09-11 06:20:00,72.6,56.0,30.03,NE,45,1.2,1.2,56,0.00,CLR,CLR,0.00,WeatherDisplay:10.37,2013-09-11 11:20:00,
2013-09-11 06:25:00,72.4,55.8,30.03,NE,45,1.2,1.2,56,0.00,CLR,CLR,0.00,WeatherDisplay:10.37,2013-09-11 11:25:00,
2013-09-11 06:30:00,72.2,55.6,30.03,NE,43,0.0,0.0,56,0.00,CLR,CLR,0.00,WeatherDisplay:10.37,2013-09-11 11:30:00,
2013-09-11 06:35:00,72.1,55.5,30.03,NE,43,2.3,2.3,56,0.00,CLR,CLR,0.00,WeatherDisplay:10.37,2013-09-11 11:35:00,
2013-09-11 06:40:00,72.0,55.4,30.03,NE,43,0.0,0.0,56,0.00,CLR,CLR,0.00,WeatherDisplay:10.37,2013-09-11 11:40:00,
2013-09-11 06:45:00,71.9,55.3,30.03,NE,43,0.0,0.0,56,0.00,CLR,CLR,0.00,WeatherDisplay:10.37,2013-09-11 11:45:00,
2013-09-11 06:50:00,71.7,55.2,30.03,NE,43,0.0,0.0,56,0.00,CLR,CLR,0.00,WeatherDisplay:10.37,2013-09-11 11:50:00,
2013-09-11 06:55:00,71.7,55.2,30.04,NE,43,0.0,0.0,56,0.00,CLR,CLR,0.00,WeatherDisplay:10.37,2013-09-11 11:55:00,
2013-09-11 07:01:00,71.6,55.1,30.03,NE,43,0.0,0.0,56,0.00,CLR,CLR,0.00,WeatherDisplay:10.37,2013-09-11 12:01:00,
2013-09-11 07:06:00,71.5,55.0,30.04,NE,43,0.0,0.0,56,0.00,CLR,CLR,0.00,WeatherDisplay:10.37,2013-09-11 12:06:00,
2013-09-11 07:11:00,71.4,54.9,30.04,NE,43,0.0,0.0,56,0.00,CLR,CLR,0.00,WeatherDisplay:10.37,2013-09-11 12:11:00,
2013-09-11 07:16:00,71.3,54.8,30.03,NE,43,0.0,0.0,56,0.00,CLR,CLR,0.00,WeatherDisplay:10.37,2013-09-11 12:16:00,
2013-09-11 07:21:00,71.3,54.8,30.03,NE,43,0.0,0.0,56,0.00,CLR,CLR,0.00,WeatherDisplay:10.37,2013-09-11 12:21:00,
2013-09-11 07:26:00,71.2,54.7,30.04,NE,43,0.0,0.0,56,0.00,CLR,CLR,0.00,WeatherDisplay:10.37,2013-09-11 12:26:00,
2013-09-11 07:31:00,71.1,54.6,30.04,NE,43,0.0,0.0,56,0.00,CLR,CLR,0.00,WeatherDisplay:10.37,2013-09-11 12:31:00,
2013-09-11 07:36:00,71.1,54.6,30.04,NE,43,0.0,0.0,56,0.00,CLR,CLR,0.00,WeatherDisplay:10.37,2013-09-11 12:36:00,
2013-09-11 07:41:00,71.1,54.6,30.04,NE,43,0.0,0.0,56,0.00,CLR,CLR,0.00,WeatherDisplay:10.37,2013-09-11 12:41:00,
2013-09-11 07:46:00,71.1,54.6,30.04,NE,43,0.0,0.0,56,0.00,CLR,CLR,0.00,WeatherDisplay:10.37,2013-09-11 12:46:00,
2013-09-11 07:51:00,71.2,54.7,30.05,NE,43,0.0,0.0,56,0.00,OVC,OVC,0.00,WeatherDisplay:10.37,2013-09-11 12:51:00,
2013-09-11 07:56:00,71.3,54.8,30.05,NE,43,0.0,0.0,56,0.00,OVC,OVC,0.00,WeatherDisplay:10.37,2013-09-11 12:56:00,
2013-09-11 08:01:00,71.4,54.9,30.04,NE,43,0.0,0.0,56,0.00,OVC,OVC,0.00,WeatherDisplay:10.37,2013-09-11 13:01:00,
2013-09-11 08:06:00,71.6,55.1,30.04,NE,43,0.0,0.0,56,0.00,OVC,OVC,0.00,WeatherDisplay:10.37,2013-09-11 13:06:00,
2013-09-11 08:11:00,71.7,55.2,30.05,NE,43,0.0,0.0,56,0.00,OVC,OVC,0.00,WeatherDisplay:10.37,2013-09-11 13:11:00,
2013-09-11 08:16:00,71.9,55.3,30.05,NE,43,0.0,0.0,56,0.00,OVC,OVC,0.00,WeatherDisplay:10.37,2013-09-11 13:16:00,
2013-09-11 08:21:00,72.0,55.9,30.05,NE,43,0.0,0.0,57,0.00,OVC,OVC,0.00,WeatherDisplay:10.37,2013-09-11 13:21:00,
2013-09-11 08:26:00,72.3,56.2,30.04,NE,43,0.0,0.0,57,0.00,OVC,OVC,0.00,WeatherDisplay:10.37,2013-09-11 13:26:00,
2013-09-11 08:31:00,72.6,56.5,30.04,NE,43,0.0,0.0,57,0.00,OVC,OVC,0.00,WeatherDisplay:10.37,2013-09-11 13:31:00,
2013-09-11 08:36:00,73.0,56.9,30.04,NE,43,0.0,0.0,57,0.00,OVC,OVC,0.00,WeatherDisplay:10.37,2013-09-11 13:36:00,
2013-09-11 08:42:00,73.6,57.9,30.05,NE,43,0.0,0.0,58,0.00,OVC,OVC,0.00,WeatherDisplay:10.37,2013-09-11 13:42:00,
2013-09-11 08:47:00,74.2,58.9,30.04,NE,43,0.0,0.0,59,0.00,OVC,OVC,0.00,WeatherDisplay:10.37,2013-09-11 13:47:00,
2013-09-11 08:52:00,74.9,59.6,30.05,NE,43,0.0,0.0,59,0.00,OVC,OVC,0.00,WeatherDisplay:10.37,2013-09-11 13:52:00,
2013-09-11 08:57:00,75.7,60.8,30.04,NE,43,0.0,0.0,60,0.00,OVC,OVC,0.00,WeatherDisplay:10.37,2013-09-11 13:57:00,
2013-09-11 09:02:00,76.5,62.0,30.04,East,88,3.5,3.5,61,0.00,OVC,OVC,0.00,WeatherDisplay:10.37,2013-09-11 14:02:00,
2013-09-11 09:07:00,77.0,62.0,30.04,East,88,0.0,0.0,60,0.00,OVC,OVC,0.00,WeatherDisplay:10.37,2013-09-11 14:07:00,
2013-09-11 09:12:00,77.7,63.2,30.04,SE,130,2.3,2.3,61,0.00,OVC,OVC,0.00,WeatherDisplay:10.37,2013-09-11 14:12:00,
2013-09-11 09:17:00,78.3,63.7,30.05,SE,136,3.5,3.5,61,0.00,OVC,OVC,0.00,WeatherDisplay:10.37,2013-09-11 14:17:00,
2013-09-11 09:22:00,78.7,64.1,30.05,SE,136,2.3,2.3,61,0.00,OVC,OVC,0.00,WeatherDisplay:10.37,2013-09-11 14:22:00,
2013-09-11 09:27:00,79.1,64.5,30.05,SE,136,2.3,2.3,61,0.00,OVC,OVC,0.00,WeatherDisplay:10.37,2013-09-11 14:27:00,
2013-09-11 09:32:00,79.4,64.3,30.05,SE,136,0.0,0.0,60,0.00,OVC,OVC,0.00,WeatherDisplay:10.37,2013-09-11 14:32:00,
2013-09-11 09:37:00,79.7,64.6,30.05,SE,136,0.0,0.0,60,0.00,OVC,OVC,0.00,WeatherDisplay:10.37,2013-09-11 14:37:00,
2013-09-11 09:42:00,80.1,65.0,30.05,SE,137,3.5,3.5,60,0.00,OVC,OVC,0.00,WeatherDisplay:10.37,2013-09-11 14:42:00,
2013-09-11 09:47:00,80.4,65.2,30.05,SE,137,0.0,0.0,60,0.00,OVC,OVC,0.00,WeatherDisplay:10.37,2013-09-11 14:47:00,
2013-09-11 09:52:00,80.3,64.7,30.05,SSE,162,2.3,2.3,59,0.00,OVC,OVC,0.00,WeatherDisplay:10.37,2013-09-11 14:52:00,
2013-09-11 09:58:00,80.1,64.5,30.05,SW,221,2.0,2.0,59,0.00,OVC,OVC,0.00,WeatherDisplay:10.37,2013-09-11 14:58:00,
2013-09-11 10:03:00,80.0,64.9,30.05,SW,221,1.2,1.2,60,0.00,OVC,OVC,0.00,WeatherDisplay:10.37,2013-09-11 15:03:00,
2013-09-11 10:08:00,80.2,65.1,30.05,SW,217,2.3,2.3,60,0.00,OVC,OVC,0.00,WeatherDisplay:10.37,2013-09-11 15:08:00,
2013-09-11 10:13:00,80.4,65.2,30.05,SW,217,3.5,0.0,60,0.00,OVC,OVC,0.00,WeatherDisplay:10.37,2013-09-11 15:13:00,
2013-09-11 10:18:00,80.6,65.4,30.05,WNW,295,1.0,1.3,60,0.00,OVC,OVC,0.00,WeatherDisplay:10.37,2013-09-11 15:18:00,
2013-09-11 10:23:00,80.5,65.3,30.05,WSW,254,3.5,3.5,60,0.00,OVC,OVC,0.00,WeatherDisplay:10.37,2013-09-11 15:23:00,
2013-09-11 10:28:00,80.5,65.3,30.05,SSE,159,0.0,1.7,60,0.00,OVC,OVC,0.00,WeatherDisplay:10.37,2013-09-11 15:28:00,
2013-09-11 10:33:00,80.5,65.3,30.05,SSE,161,0.0,0.0,60,0.00,OVC,OVC,0.00,WeatherDisplay:10.37,2013-09-11 15:33:00,
2013-09-11 10:38:00,80.6,65.4,30.05,SSE,161,0.0,0.0,60,0.00,OVC,OVC,0.00,WeatherDisplay:10.37,2013-09-11 15:38:00,
2013-09-11 10:43:00,80.7,65.5,30.05,SSE,161,2.3,2.3,60,0.00,OVC,OVC,0.00,WeatherDisplay:10.37,2013-09-11 15:43:00,
2013-09-11 10:48:00,81.1,65.9,30.05,SSW,205,3.0,3.0,60,0.00,OVC,OVC,0.00,WeatherDisplay:10.37,2013-09-11 15:48:00,
2013-09-11 10:53:00,81.2,66.0,30.06,WNW,289,3.5,3.5,60,0.00,OVC,OVC,0.00,WeatherDisplay:10.37,2013-09-11 15:53:00,
2013-09-11 10:58:00,81.3,66.1,30.05,WNW,288,3.0,3.0,60,0.00,OVC,OVC,0.00,WeatherDisplay:10.37,2013-09-11 15:58:00,
2013-09-11 11:03:00,81.4,66.2,30.05,West,281,3.5,3.5,60,0.00,OVC,OVC,0.00,WeatherDisplay:10.37,2013-09-11 16:03:00,
2013-09-11 11:08:00,81.7,66.5,30.05,West,280,1.0,0.0,60,0.00,OVC,OVC,0.00,WeatherDisplay:10.37,2013-09-11 16:08:00,
2013-09-11 11:13:00,82.0,66.3,30.05,WNW,288,4.0,4.0,59,0.00,OVC,OVC,0.00,WeatherDisplay:10.37,2013-09-11 16:13:00,
2013-09-11 11:18:00,82.5,66.7,30.05,WNW,288,0.0,0.0,59,0.00,OVC,OVC,0.00,WeatherDisplay:10.37,2013-09-11 16:18:00,
2013-09-11 11:23:00,82.9,67.1,30.05,WNW,286,1.2,1.6,59,0.00,OVC,OVC,0.00,WeatherDisplay:10.37,2013-09-11 16:23:00,
2013-09-11 11:28:00,82.8,66.5,30.05,NW,313,0.0,0.0,58,0.00,OVC,OVC,0.00,WeatherDisplay:10.37,2013-09-11 16:28:00,
2013-09-11 11:33:00,83.5,66.7,30.05,WNW,302,3.5,3.5,57,0.00,OVC,OVC,0.00,WeatherDisplay:10.37,2013-09-11 16:33:00,
2013-09-11 11:38:00,83.9,66.5,30.04,South,175,3.5,3.5,56,0.00,OVC,OVC,0.00,WeatherDisplay:10.37,2013-09-11 16:38:00,
2013-09-11 11:43:00,84.3,66.9,30.04,South,175,0.0,0.1,56,0.00,OVC,OVC,0.00,WeatherDisplay:10.37,2013-09-11 16:43:00,
2013-09-11 11:48:00,84.8,66.3,30.04,South,175,0.0,0.0,54,0.00,OVC,OVC,0.00,WeatherDisplay:10.37,2013-09-11 16:48:00,
2013-09-11 11:53:00,84.9,66.4,30.04,WSW,244,2.3,2.3,54,0.00,OVC,OVC,0.00,WeatherDisplay:10.37,2013-09-11 16:53:00,
2013-09-11 11:58:00,84.5,66.0,30.04,WSW,245,3.5,3.5,54,0.00,OVC,OVC,0.00,WeatherDisplay:10.37,2013-09-11 16:58:00,
2013-09-11 12:03:00,84.7,66.2,30.04,South,181,3.5,3.5,54,0.00,OVC,OVC,0.00,WeatherDisplay:10.37,2013-09-11 17:03:00,
2013-09-11 12:08:00,84.8,66.8,30.04,West,267,0.0,0.0,55,0.00,OVC,OVC,0.00,WeatherDisplay:10.37,2013-09-11 17:08:00,
2013-09-11 12:13:00,84.8,66.3,30.04,West,261,2.3,0.0,54,0.00,OVC,OVC,0.00,WeatherDisplay:10.37,2013-09-11 17:13:00,
2013-09-11 12:18:00,85.1,67.1,30.04,West,260,1.2,1.2,55,0.00,OVC,OVC,0.00,WeatherDisplay:10.37,2013-09-11 17:18:00,
2013-09-11 12:23:00,85.0,66.0,30.04,West,280,3.5,3.5,53,0.00,OVC,OVC,0.00,WeatherDisplay:10.37,2013-09-11 17:23:00,
2013-09-11 12:28:00,85.0,66.0,30.04,NW,317,3.5,3.5,53,0.00,OVC,OVC,0.00,WeatherDisplay:10.37,2013-09-11 17:28:00,
2013-09-11 12:33:00,84.7,65.7,30.04,NW,310,2.3,2.3,53,0.00,OVC,OVC,0.00,WeatherDisplay:10.37,2013-09-11 17:33:00,
2013-09-11 12:38:00,84.1,65.1,30.04,NNW,338,3.5,3.5,53,0.00,OVC,OVC,0.00,WeatherDisplay:10.37,2013-09-11 17:38:00,
2013-09-11 12:43:00,83.5,65.6,30.04,West,271,2.3,2.3,55,0.00,OVC,OVC,0.00,WeatherDisplay:10.37,2013-09-11 17:43:00,
2013-09-11 12:48:00,83.3,65.4,30.04,West,278,2.0,2.0,55,0.00,OVC,OVC,0.00,WeatherDisplay:10.37,2013-09-11 17:48:00,
2013-09-11 12:53:00,83.1,65.3,30.04,West,277,0.0,0.0,55,0.00,OVC,OVC,0.00,WeatherDisplay:10.37,2013-09-11 17:53:00,
2013-09-11 12:58:00,83.4,65.5,30.04,West,279,1.2,0.0,55,0.00,OVC,OVC,0.00,WeatherDisplay:10.37,2013-09-11 17:58:00,
2013-09-11 13:03:00,83.8,65.4,30.03,West,267,2.3,2.3,54,0.00,OVC,OVC,0.00,WeatherDisplay:10.37,2013-09-11 18:03:00,
2013-09-11 13:08:00,84.2,65.2,30.03,West,270,5.0,5.0,53,0.00,OVC,OVC,0.00,WeatherDisplay:10.37,2013-09-11 18:08:00,
2013-09-11 13:13:00,84.7,65.1,30.03,West,273,4.6,4.6,52,0.00,OVC,OVC,0.00,WeatherDisplay:10.37,2013-09-11 18:13:00,
2013-09-11 13:18:00,85.2,64.5,30.03,WNW,300,3.5,3.5,50,0.00,OVC,OVC,0.00,WeatherDisplay:10.37,2013-09-11 18:18:00,
2013-09-11 13:23:00,85.9,65.1,30.03,WNW,296,5.8,5.8,50,0.00,OVC,OVC,0.00,WeatherDisplay:10.37,2013-09-11 18:23:00,
2013-09-11 13:29:00,85.7,64.3,30.03,NW,306,3.5,3.5,49,0.00,OVC,OVC,0.00,WeatherDisplay:10.37,2013-09-11 18:29:00,
2013-09-11 13:34:00,85.0,64.3,30.03,NW,306,3.5,3.5,50,0.00,OVC,OVC,0.00,WeatherDisplay:10.37,2013-09-11 18:34:00,
2013-09-11 13:39:00,84.4,64.9,30.03,NW,306,2.3,2.3,52,0.00,OVC,OVC,0.00,WeatherDisplay:10.37,2013-09-11 18:39:00,
2013-09-11 13:44:00,84.2,64.7,30.03,NNE,24,0.0,0.0,52,0.00,OVC,OVC,0.00,WeatherDisplay:10.37,2013-09-11 18:44:00,
2013-09-11 13:49:00,84.0,65.0,30.03,WNW,294,2.3,2.3,53,0.00,OVC,OVC,0.00,WeatherDisplay:10.37,2013-09-11 18:49:00,
2013-09-11 13:54:00,84.1,65.1,30.03,NW,326,2.3,2.3,53,0.00,OVC,OVC,0.00,WeatherDisplay:10.37,2013-09-11 18:54:00,
2013-09-11 13:59:00,84.4,65.4,30.03,NNW,343,1.2,1.2,53,0.00,OVC,OVC,0.00,WeatherDisplay:10.37,2013-09-11 18:59:00,
2013-09-11 14:04:00,84.7,65.7,30.03,NNW,343,1.2,0.0,53,0.00,OVC,OVC,0.00,WeatherDisplay:10.37,2013-09-11 19:04:00,
2013-09-11 14:09:00,84.7,64.6,30.02,West,273,1.2,1.2,51,0.00,OVC,OVC,0.00,WeatherDisplay:10.37,2013-09-11 19:09:00,
2013-09-11 14:14:00,84.9,65.9,30.02,North,5,3.5,3.5,53,0.00,OVC,OVC,0.00,WeatherDisplay:10.37,2013-09-11 19:14:00,
2013-09-11 14:19:00,84.7,65.7,30.02,NNW,344,3.5,3.5,53,0.00,OVC,OVC,0.00,WeatherDisplay:10.37,2013-09-11 19:19:00,
2013-09-11 14:24:00,84.7,65.7,30.02,NNW,338,2.3,2.3,53,0.00,OVC,OVC,0.00,WeatherDisplay:10.37,2013-09-11 19:24:00,
2013-09-11 14:29:00,85.0,66.0,30.02,NNW,347,2.0,2.0,53,0.00,OVC,OVC,0.00,WeatherDisplay:10.37,2013-09-11 19:29:00,
2013-09-11 14:34:00,85.2,65.0,30.02,West,267,5.8,5.8,51,0.00,OVC,OVC,0.00,WeatherDisplay:10.37,2013-09-11 19:34:00,
2013-09-11 14:39:00,85.1,64.9,30.02,West,267,0.0,0.0,51,0.00,OVC,OVC,0.00,WeatherDisplay:10.37,2013-09-11 19:39:00,
2013-09-11 14:44:00,85.3,64.6,30.02,West,278,0.0,0.0,50,0.00,OVC,OVC,0.00,WeatherDisplay:10.37,2013-09-11 19:44:00,
2013-09-11 14:49:00,85.4,65.2,30.02,NNW,332,1.0,1.0,51,0.00,OVC,OVC,0.00,WeatherDisplay:10.37,2013-09-11 19:49:00,
2013-09-11 14:54:00,85.6,64.2,30.02,NW,325,3.5,3.5,49,0.00,OVC,OVC,0.00,WeatherDisplay:10.37,2013-09-11 19:54:00,
2013-09-11 14:59:00,86.0,64.6,30.02,WNW,285,1.2,0.0,49,0.00,OVC,OVC,0.00,WeatherDisplay:10.37,2013-09-11 19:59:00,
2013-09-11 15:04:00,86.6,64.6,30.01,WNW,293,1.0,0.0,48,0.00,OVC,OVC,0.00,WeatherDisplay:10.37,2013-09-11 20:04:00,
2013-09-11 15:09:00,86.9,64.2,30.02,West,273,0.0,0.1,47,0.00,OVC,OVC,0.00,WeatherDisplay:10.37,2013-09-11 20:09:00,
2013-09-11 15:14:00,86.8,64.2,30.01,North,5,3.5,3.5,47,0.00,OVC,OVC,0.00,WeatherDisplay:10.37,2013-09-11 20:14:00,
2013-09-11 15:19:00,86.8,64.2,30.01,West,277,3.5,3.5,47,0.00,OVC,OVC,0.00,WeatherDisplay:10.37,2013-09-11 20:19:00,
2013-09-11 15:24:00,87.1,65.0,30.01,West,276,4.6,4.6,48,0.00,OVC,OVC,0.00,WeatherDisplay:10.37,2013-09-11 20:24:00,
2013-09-11 15:29:00,87.2,63.3,30.01,NNW,343,2.3,2.3,45,0.00,OVC,OVC,0.00,WeatherDisplay:10.37,2013-09-11 20:29:00,
2013-09-11 15:34:00,87.2,63.3,30.01,NE,34,3.5,3.5,45,0.00,OVC,OVC,0.00,WeatherDisplay:10.37,2013-09-11 20:34:00,
2013-09-11 15:39:00,87.3,63.4,30.01,NE,34,3.5,3.5,45,0.00,OVC,OVC,0.00,WeatherDisplay:10.37,2013-09-11 20:39:00,
2013-09-11 15:44:00,87.3,63.4,30.01,NNE,33,1.2,1.2,45,0.00,OVC,OVC,0.00,WeatherDisplay:10.37,2013-09-11 20:44:00,
2013-09-11 15:49:00,87.3,62.7,30.01,NE,34,0.0,0.0,44,0.00,OVC,OVC,0.00,WeatherDisplay:10.37,2013-09-11 20:49:00,
2013-09-11 15:54:00,87.1,62.5,30.01,WNW,299,3.0,3.0,44,0.00,OVC,OVC,0.00,WeatherDisplay:10.37,2013-09-11 20:54:00,
2013-09-11 15:59:00,86.7,62.2,30.01,West,270,2.3,2.3,44,0.00,OVC,OVC,0.00,WeatherDisplay:10.37,2013-09-11 20:59:00,
2013-09-11 16:04:00,86.8,62.9,30.01,West,269,3.5,3.5,45,0.00,OVC,OVC,0.00,WeatherDisplay:10.37,2013-09-11 21:04:00,
2013-09-11 16:09:00,87.2,63.3,30.01,West,276,3.0,3.0,45,0.00,OVC,OVC,0.00,WeatherDisplay:10.37,2013-09-11 21:09:00,
2013-09-11 16:14:00,87.6,63.0,30.00,NW,319,3.5,0.0,44,0.00,OVC,OVC,0.00,WeatherDisplay:10.37,2013-09-11 21:14:00,
2013-09-11 16:19:00,87.7,63.7,30.00,NW,319,0.0,0.0,45,0.00,OVC,OVC,0.00,WeatherDisplay:10.37,2013-09-11 21:19:00,
2013-09-11 16:24:00,87.8,63.8,30.00,NW,319,0.0,0.0,45,0.00,OVC,OVC,0.00,WeatherDisplay:10.37,2013-09-11 21:24:00,
2013-09-11 16:29:00,87.3,62.7,30.00,NW,325,5.0,5.0,44,0.00,OVC,OVC,0.00,WeatherDisplay:10.37,2013-09-11 21:29:00,
2013-09-11 16:34:00,86.5,62.6,30.00,NNW,340,4.6,4.6,45,0.00,OVC,OVC,0.00,WeatherDisplay:10.37,2013-09-11 21:34:00,
2013-09-11 16:39:00,86.2,63.0,30.00,NE,42,3.5,3.5,46,0.00,OVC,OVC,0.00,WeatherDisplay:10.37,2013-09-11 21:39:00,
2013-09-11 16:44:00,86.2,63.6,30.00,NE,41,2.3,0.0,47,0.00,OVC,OVC,0.00,WeatherDisplay:10.37,2013-09-11 21:44:00,
2013-09-11 16:49:00,86.9,64.2,30.00,NE,40,0.0,0.0,47,0.00,OVC,OVC,0.00,WeatherDisplay:10.37,2013-09-11 21:49:00,
2013-09-11 16:54:00,87.7,63.1,30.00,NNE,30,3.5,3.5,44,0.00,OVC,OVC,0.00,WeatherDisplay:10.37,2013-09-11 21:54:00,
2013-09-11 16:59:00,87.2,62.6,30.00,NE,42,3.5,3.5,44,0.00,OVC,OVC,0.00,WeatherDisplay:10.37,2013-09-11 21:59:00,
2013-09-11 17:04:00,87.0,63.7,30.00,NE,37,2.0,2.0,46,0.00,OVC,OVC,0.00,WeatherDisplay:10.37,2013-09-11 22:04:00,
2013-09-11 17:10:00,86.7,62.8,30.00,NNE,28,1.2,1.2,45,0.00,OVC,OVC,0.00,WeatherDisplay:10.37,2013-09-11 22:10:00,
2013-09-11 17:15:00,86.5,62.6,30.00,NNE,28,0.0,0.0,45,0.00,OVC,OVC,0.00,WeatherDisplay:10.37,2013-09-11 22:15:00,
2013-09-11 17:20:00,86.0,62.2,30.00,NNE,28,1.2,0.0,45,0.00,OVC,OVC,0.00,WeatherDisplay:10.37,2013-09-11 22:20:00,
2013-09-11 17:25:00,85.8,62.6,30.00,NNE,28,1.2,1.2,46,0.00,OVC,OVC,0.00,WeatherDisplay:10.37,2013-09-11 22:25:00,
2013-09-11 17:30:00,85.6,63.1,30.00,NNE,28,1.2,1.2,47,0.00,OVC,OVC,0.00,WeatherDisplay:10.37,2013-09-11 22:30:00,
2013-09-11 17:35:00,85.5,62.4,30.00,NNE,28,3.5,3.5,46,0.00,OVC,OVC,0.00,WeatherDisplay:10.37,2013-09-11 22:35:00,
2013-09-11 17:40:00,85.4,63.5,30.00,NNE,26,2.3,2.3,48,0.00,OVC,OVC,0.00,WeatherDisplay:10.37,2013-09-11 22:40:00,
2013-09-11 17:45:00,85.2,60.2,30.00,North,355,11.5,11.5,43,0.00,OVC,OVC,0.00,WeatherDisplay:10.37,2013-09-11 22:45:00,
2013-09-11 17:50:00,84.7,59.1,30.01,NE,34,5.8,5.8,42,0.00,OVC,OVC,0.00,WeatherDisplay:10.37,2013-09-11 22:50:00,
2013-09-11 17:55:00,84.5,59.5,30.01,NNE,15,0.0,0.0,43,0.00,OVC,OVC,0.00,WeatherDisplay:10.37,2013-09-11 22:55:00,
2013-09-11 18:00:00,84.1,59.2,30.01,NNW,340,3.5,3.5,43,0.00,OVC,OVC,0.00,WeatherDisplay:10.37,2013-09-11 23:00:00,
2013-09-11 18:05:00,83.9,59.7,30.01,North,355,3.5,3.5,44,0.00,OVC,OVC,0.00,WeatherDisplay:10.37,2013-09-11 23:05:00,
2013-09-11 18:10:00,83.8,59.6,30.01,NNW,346,3.0,3.0,44,0.00,OVC,OVC,0.00,WeatherDisplay:10.37,2013-09-11 23:10:00,
2013-09-11 18:15:00,83.6,60.0,30.01,NNW,345,1.0,1.0,45,0.00,OVC,OVC,0.00,WeatherDisplay:10.37,2013-09-11 23:15:00,
2013-09-11 18:20:00,83.5,59.9,30.01,NNW,346,3.5,0.0,45,0.00,OVC,OVC,0.00,WeatherDisplay:10.37,2013-09-11 23:20:00,
2013-09-11 18:25:00,83.4,59.8,30.01,North,360,3.5,3.5,45,0.00,OVC,OVC,0.00,WeatherDisplay:10.37,2013-09-11 23:25:00,
2013-09-11 18:30:00,83.2,59.6,30.01,North,360,3.5,3.5,45,0.00,OVC,OVC,0.00,WeatherDisplay:10.37,2013-09-11 23:30:00,
2013-09-11 18:35:00,83.1,60.2,30.01,North,360,0.0,0.0,46,0.00,OVC,OVC,0.00,WeatherDisplay:10.37,2013-09-11 23:35:00,
2013-09-11 18:40:00,83.0,60.7,30.01,North,360,0.0,0.0,47,0.00,OVC,OVC,0.00,WeatherDisplay:10.37,2013-09-11 23:40:00,
2013-09-11 18:45:00,82.9,60.6,30.01,North,360,0.0,0.0,47,0.00,OVC,OVC,0.00,WeatherDisplay:10.37,2013-09-11 23:45:00,
2013-09-11 18:50:00,82.7,60.4,30.01,North,360,0.0,0.0,47,0.00,OVC,OVC,0.00,WeatherDisplay:10.37,2013-09-11 23:50:00,
2013-09-11 18:55:00,82.5,59.6,30.01,North,360,0.0,0.0,46,0.00,OVC,OVC,0.00,WeatherDisplay:10.37,2013-09-11 23:55:00,
2013-09-11 19:00:00,82.3,59.4,30.01,North,360,0.0,0.0,46,0.00,OVC,OVC,0.00,WeatherDisplay:10.37,2013-09-12 00:00:00,
2013-09-11 19:05:00,82.0,59.2,30.01,North,360,1.2,0.0,46,0.00,OVC,OVC,0.00,WeatherDisplay:10.37,2013-09-12 00:05:00,
2013-09-11 19:10:00,81.7,58.9,30.01,North,360,0.0,0.0,46,0.00,OVC,OVC,0.00,WeatherDisplay:10.37,2013-09-12 00:10:00,
2013-09-11 19:16:00,81.5,59.3,30.02,North,360,0.0,0.0,47,0.00,OVC,OVC,0.00,WeatherDisplay:10.37,2013-09-12 00:16:00,
2013-09-11 19:21:00,81.3,59.1,30.02,North,360,0.0,0.0,47,0.00,OVC,OVC,0.00,WeatherDisplay:10.37,2013-09-12 00:21:00,
2013-09-11 19:26:00,81.1,59.0,30.02,North,360,0.0,0.0,47,0.00,OVC,OVC,0.00,WeatherDisplay:10.37,2013-09-12 00:26:00,
2013-09-11 19:31:00,80.9,59.4,30.02,North,360,0.0,0.0,48,0.00,OVC,OVC,0.00,WeatherDisplay:10.37,2013-09-12 00:31:00,
2013-09-11 19:36:00,80.6,59.1,30.02,North,360,0.0,0.0,48,0.00,OVC,OVC,0.00,WeatherDisplay:10.37,2013-09-12 00:36:00,
2013-09-11 19:41:00,80.4,59.5,30.02,North,360,0.0,0.0,49,0.00,OVC,OVC,0.00,WeatherDisplay:10.37,2013-09-12 00:41:00,
2013-09-11 19:46:00,80.2,59.3,30.02,North,360,0.0,0.0,49,0.00,OVC,OVC,0.00,WeatherDisplay:10.37,2013-09-12 00:46:00,
2013-09-11 19:51:00,80.0,59.7,30.02,North,360,0.0,0.0,50,0.00,OVC,OVC,0.00,WeatherDisplay:10.37,2013-09-12 00:51:00,
2013-09-11 19:56:00,79.6,59.3,30.02,North,360,0.0,0.0,50,0.00,OVC,OVC,0.00,WeatherDisplay:10.37,2013-09-12 00:56:00,
2013-09-11 20:01:00,79.4,59.7,30.03,North,360,0.0,0.0,51,0.00,OVC,OVC,0.00,WeatherDisplay:10.37,2013-09-12 01:01:00,
2013-09-11 20:06:00,79.1,60.0,30.02,North,360,0.0,0.0,52,0.00,OVC,OVC,0.00,WeatherDisplay:10.37,2013-09-12 01:06:00,
2013-09-11 20:11:00,78.9,59.8,30.03,North,360,0.0,0.0,52,0.00,OVC,OVC,0.00,WeatherDisplay:10.37,2013-09-12 01:11:00,
2013-09-11 20:16:00,78.7,60.1,30.03,North,360,0.0,0.0,53,0.00,OVC,OVC,0.00,WeatherDisplay:10.37,2013-09-12 01:16:00,
2013-09-11 20:21:00,78.7,60.1,30.03,North,360,0.0,0.0,53,0.00,OVC,OVC,0.00,WeatherDisplay:10.37,2013-09-12 01:21:00,
2013-09-11 20:26:00,78.7,60.1,30.03,North,360,0.0,0.0,53,0.00,OVC,OVC,0.00,WeatherDisplay:10.37,2013-09-12 01:26:00,
2013-09-11 20:31:00,78.5,59.9,30.03,North,360,0.0,0.0,53,0.00,OVC,OVC,0.00,WeatherDisplay:10.37,2013-09-12 01:31:00,
2013-09-11 20:36:00,78.3,59.8,30.03,North,360,0.0,0.0,53,0.00,OVC,OVC,0.00,WeatherDisplay:10.37,2013-09-12 01:36:00,
2013-09-11 20:41:00,78.1,59.6,30.03,North,360,0.0,0.0,53,0.00,OVC,OVC,0.00,WeatherDisplay:10.37,2013-09-12 01:41:00,
2013-09-11 20:46:00,77.9,59.4,30.03,North,360,0.0,0.0,53,0.00,OVC,OVC,0.00,WeatherDisplay:10.37,2013-09-12 01:46:00,
2013-09-11 20:51:00,77.6,59.1,30.03,North,360,0.0,0.0,53,0.00,OVC,OVC,0.00,WeatherDisplay:10.37,2013-09-12 01:51:00,
2013-09-11 20:56:00,77.5,59.0,30.03,North,360,0.0,0.0,53,0.00,OVC,OVC,0.00,WeatherDisplay:10.37,2013-09-12 01:56:00,
2013-09-11 21:01:00,77.4,59.5,30.03,North,360,0.0,0.0,54,0.00,OVC,OVC,0.00,WeatherDisplay:10.37,2013-09-12 02:01:00,
2013-09-11 21:06:00,77.3,59.9,30.03,North,360,0.0,0.0,55,0.00,OVC,OVC,0.00,WeatherDisplay:10.37,2013-09-12 02:06:00,
2013-09-11 21:11:00,77.1,59.7,30.03,North,360,0.0,0.0,55,0.00,OVC,OVC,0.00,WeatherDisplay:10.37,2013-09-12 02:11:00,
2013-09-11 21:16:00,76.9,60.0,30.03,North,360,0.0,0.0,56,0.00,OVC,OVC,0.00,WeatherDisplay:10.37,2013-09-12 02:16:00,
2013-09-11 21:21:00,76.5,59.6,30.04,North,360,0.0,0.0,56,0.00,OVC,OVC,0.00,WeatherDisplay:10.37,2013-09-12 02:21:00,
2013-09-11 21:26:00,76.4,60.0,30.04,North,360,0.0,0.0,57,0.00,OVC,OVC,0.00,WeatherDisplay:10.37,2013-09-12 02:26:00,
2013-09-11 21:31:00,76.2,59.9,30.03,North,360,0.0,0.0,57,0.00,OVC,OVC,0.00,WeatherDisplay:10.37,2013-09-12 02:31:00,
2013-09-11 21:36:00,76.1,60.2,30.03,North,360,0.0,0.0,58,0.00,OVC,OVC,0.00,WeatherDisplay:10.37,2013-09-12 02:36:00,
2013-09-11 21:41:00,75.9,60.1,30.03,North,360,0.0,0.0,58,0.00,OVC,OVC,0.00,WeatherDisplay:10.37,2013-09-12 02:41:00,
2013-09-11 21:46:00,75.8,60.0,30.04,North,360,0.0,0.0,58,0.00,OVC,OVC,0.00,WeatherDisplay:10.37,2013-09-12 02:46:00,
2013-09-11 21:51:00,75.7,59.9,30.04,North,360,0.0,0.0,58,0.00,OVC,OVC,0.00,WeatherDisplay:10.37,2013-09-12 02:51:00,
2013-09-11 21:56:00,75.6,60.3,30.04,North,360,0.0,0.0,59,0.00,OVC,OVC,0.00,WeatherDisplay:10.37,2013-09-12 02:56:00,
2013-09-11 22:01:00,75.6,60.3,30.03,North,360,0.0,0.0,59,0.00,OVC,OVC,0.00,WeatherDisplay:10.37,2013-09-12 03:01:00,
2013-09-11 22:06:00,75.6,60.3,30.04,North,360,0.0,0.0,59,0.00,OVC,OVC,0.00,WeatherDisplay:10.37,2013-09-12 03:06:00,
2013-09-11 22:11:00,75.4,60.1,30.04,North,360,0.0,0.0,59,0.00,OVC,OVC,0.00,WeatherDisplay:10.37,2013-09-12 03:11:00,
2013-09-11 22:16:00,75.3,60.0,30.04,North,360,0.0,0.0,59,0.00,OVC,OVC,0.00,WeatherDisplay:10.37,2013-09-12 03:16:00,
2013-09-11 22:21:00,75.2,59.9,30.04,North,360,0.0,0.0,59,0.00,OVC,OVC,0.00,WeatherDisplay:10.37,2013-09-12 03:21:00,
2013-09-11 22:26:00,75.0,59.7,30.04,North,360,0.0,0.0,59,0.00,OVC,OVC,0.00,WeatherDisplay:10.37,2013-09-12 03:26:00,
2013-09-11 22:31:00,74.8,59.5,30.04,North,360,0.0,0.0,59,0.00,OVC,OVC,0.00,WeatherDisplay:10.37,2013-09-12 03:31:00,
2013-09-11 22:36:00,74.8,60.0,30.04,North,360,0.0,0.0,60,0.00,OVC,OVC,0.00,WeatherDisplay:10.37,2013-09-12 03:36:00,
2013-09-11 22:42:00,74.7,59.9,30.04,North,360,0.0,0.0,60,0.00,OVC,OVC,0.00,WeatherDisplay:10.37,2013-09-12 03:42:00,
2013-09-11 22:47:00,74.7,59.9,30.04,North,360,0.0,0.0,60,0.00,OVC,OVC,0.00,WeatherDisplay:10.37,2013-09-12 03:47:00,
2013-09-11 22:52:00,74.7,59.9,30.04,North,360,0.0,0.0,60,0.00,OVC,OVC,0.00,WeatherDisplay:10.37,2013-09-12 03:52:00,
2013-09-11 22:57:00,74.7,59.9,30.04,North,360,0.0,0.0,60,0.00,OVC,OVC,0.00,WeatherDisplay:10.37,2013-09-12 03:57:00,
2013-09-11 23:01:00,74.8,60.0,30.03,North,360,0.0,0.0,60,0.00,OVC,OVC,0.00,WeatherDisplay:10.37,2013-09-12 04:01:00,
2013-09-11 23:06:00,74.9,60.1,30.03,North,360,0.0,0.0,60,0.00,OVC,OVC,0.00,WeatherDisplay:10.37,2013-09-12 04:06:00,
2013-09-11 23:11:00,75.0,60.2,30.03,North,360,0.0,0.0,60,0.00,OVC,OVC,0.00,WeatherDisplay:10.37,2013-09-12 04:11:00,
2013-09-11 23:16:00,75.1,60.3,30.03,North,360,0.0,0.0,60,0.00,OVC,OVC,0.00,WeatherDisplay:10.37,2013-09-12 04:16:00,
2013-09-11 23:21:00,75.1,60.3,30.03,North,360,0.0,0.0,60,0.00,OVC,OVC,0.00,WeatherDisplay:10.37,2013-09-12 04:21:00,
2013-09-11 23:26:00,75.0,60.2,30.03,North,360,0.0,0.0,60,0.00,OVC,OVC,0.00,WeatherDisplay:10.37,2013-09-12 04:26:00,
2013-09-11 23:31:00,75.0,60.2,30.03,North,360,0.0,0.0,60,0.00,OVC,OVC,0.00,WeatherDisplay:10.37,2013-09-12 04:31:00,
2013-09-11 23:36:00,74.9,60.1,30.03,North,360,0.0,0.0,60,0.00,OVC,OVC,0.00,WeatherDisplay:10.37,2013-09-12 04:36:00,
2013-09-11 23:41:00,74.9,60.5,30.03,North,360,0.0,0.0,61,0.00,OVC,OVC,0.00,WeatherDisplay:10.37,2013-09-12 04:41:00,
2013-09-11 23:46:00,74.8,60.4,30.03,North,360,0.0,0.0,61,0.00,OVC,OVC,0.00,WeatherDisplay:10.37,2013-09-12 04:46:00,
2013-09-11 23:51:00,74.8,60.4,30.03,North,360,0.0,0.0,61,0.00,OVC,OVC,0.00,WeatherDisplay:10.37,2013-09-12 04:51:00,
2013-09-11 23:56:00,74.6,60.3,30.03,North,360,0.0,0.0,61,0.00,OVC,OVC,0.00,WeatherDisplay:10.37,2013-09-12 04:56:00,